Regional Weather Roundup
Issued by NWS Cleveland, OH

Home | Current Version | Previous Version | Text Only | Print | Product List | Glossary On
Versions: 1 2 3 4 5 6 7 8 9 10 11 12 13 14 15 16 17 18 19 20 21 22 23 24 25 26 27 28 29 30 31 32 33 34 35 36 37 38 39 40 41 42 43 44 45 46 47 48 49 50
000
ASUS41 KCLE 250712
RWRCLE
OHIO REGIONAL WEATHER ROUNDUP
NATIONAL WEATHER SERVICE WILMINGTON, OH
300 AM EDT TUE JUL 25 2017

NOTE: "FAIR" INDICATES FEW OR NO CLOUDS BELOW 12,000 FEET WITH NO
SIGNIFICANT WEATHER AND/OR OBSTRUCTIONS TO VISIBILITY.

OHZ001>008-015>018-024>027-034-035-043-044-250800-
   NORTHWEST OHIO

CITY           SKY/WX    TMP DP  RH WIND       PRES   REMARKS
DEFIANCE       FAIR     N/A N/A N/A CALM      30.15S
FINDLAY        FAIR      61  54  77 CALM      30.13S
TOLEDO EXPRESS FAIR      55  54  96 SW3       30.14R
TOLEDO EXEC    FAIR      59  55  87 W3        30.14S
LIMA           FAIR      55  55 100 CALM      30.14S
$$

OHZ009>014-019>023-028>033-038-089-250800-
   NORTHEAST OHIO

CITY           SKY/WX    TMP DP  RH WIND       PRES   REMARKS
CLE-HOPKINS    CLOUDY    67  56  67 N13       30.12R
CLE-LAKEFRONT  CLOUDY    66  56  70 N17G25    30.09R
CUY CO. ARPT   NOT AVBL
LORAIN-ELYRIA  CLOUDY    64  51  62 N8        30.11S
ASHTABULA      CLOUDY    62  59  90 N5        30.09R
AKRON-CANTON   CLOUDY    64  53  67 N8        30.11R
WOOSTER        CLOUDY    60  58  92 CALM      30.12S
MANSFIELD      CLOUDY    59  57  93 NW5       30.13S
YOUNGSTOWN     CLOUDY    63  55  75 NW7       30.08S
$$

OHZ042-051>053-060>062-070>072-077>081-250800-
  SOUTHWEST OHIO

CITY           SKY/WX    TMP DP  RH WIND       PRES   REMARKS
CINC-COVINGTON FAIR      68  60  75 NE12      30.11S
CINC-LUNKEN    FAIR      65  61  87 NE6       30.12R
HAMILTON       FAIR      64  60  87 NE5       30.13S
DAYTON         FAIR      61  57  87 NE3       30.15R
WRIGHT-PAT AFB FAIR      60  60  99 CALM      30.14R
DAYTON GENERAL FAIR      61  58  90 NE5       30.12S
WILMINGTON     FAIR      59  59 100 NE7       30.13R
$$

OHZ036-037-039>041-045>050-054>059-063>069-073>076-082>088-250800-
  CENTRAL AND SOUTHEAST OHIO

CITY           SKY/WX    TMP DP  RH WIND       PRES   REMARKS
COLUMBUS       FAIR      61  60  97 CALM      30.13R
OSU AIRPORT    FAIR      59  59 100 N3        30.13S
BOLTON FIELD   FAIR      58  58 100 CALM      30.14S
RICKENBACK AFB FAIR      61  59  94 CALM      30.13S
NEWARK         FAIR      58  56  93 CALM      30.12F
MARION         FAIR      57  55  93 CALM      30.14S
LANCASTER      FAIR      57  57 100 CALM      30.13S FOG
ZANESVILLE     FAIR      60  57  89 CALM      30.12S
NEW PHILLY     CLOUDY    60  58  92 CALM      30.12S
$$




USA.gov is the U.S. government's official web portal to all federal, state and local government web resources and services.